Volver al catálogo

TITAN 3C TRANSTAGE DEB

ActivoHEO
NORAD 5998·DEBRIS·🇺🇸 United States

Lanzado Dec 21, 1965 desde Cape Canaveral Space Force Station

Loading…

Próximos Pases (próximas 24 horas)

TLE

ActualizadoSource: Space-Track

Época: Sep 13, 2026, 06:14 UTC

1  5998U 65108T   26256.26006639  .00002007  00000-0  94946-2 0  9997
2  5998  26.5786 349.6910 6579503 180.9255 216.4942  3.03873286151403

Sigue TITAN 3C TRANSTAGE DEB en tiempo real con AllMySat

Download on the App Store